[[{"header":{"parameterUnit":"m.s-1","parameterCategory":1,"la1":30.2991,"la2":30.254,"lo1":-89.0895,"lo2":-89.0444,"dy":0.0017,"dx":0.0017,"nx":28,"ny":28,"refTime":"2024-08-26T03:00:00:Z","depth":0,"parameterNumber":2,"parameterNumberName":"U-component_of_WINDS"},"data":[0,0,0,0,0,0,0,0,0,0,0,0,0,0,0,0,0,0,0,0,0,0,0,0,0,0,0,0,0,0,0,0,0,0,0,0,0,0,0,0,0,0,0,0,0,0,0,0,0,0,0,0,0,0,0,0,0,0,-0.1715,-0.1715,0,-0.1709,-0.1709,-0.1709,-0.1678,-0.1678,-0.1677,-0.1676,-0.1672,-0.1672,-0.1673,0,0,0,0,0,0,0,0,0,0,0,0,0,-0.1702,-0.1703,-0.1715,-0.1715,-0.1715,-0.1709,-0.1709,-0.1709,-0.1679,-0.1678,-0.1677,-0.1676,-0.1671,-0.1672,-0.1673,0,0,0,0,0,0,0,0,0,0,0,0,0,-0.1703,-0.1703,-0.1715,-0.1699,-0.1698,-0.1709,-0.1709,-0.1709,-0.1679,-0.1678,-0.1677,-0.1675,-0.1671,-0.1672,-0.1673,-0.17,0,0,-0.1675,-0.1676,0,0,0,0,0,0,0,0,-0.1703,-0.1704,-0.1702,-0.17,-0.1699,-0.1693,-0.1703,-0.1706,-0.1679,-0.1686,-0.1676,-0.1675,-0.168,-0.168,-0.1681,-0.17,-0.1699,-0.1675,-0.1676,-0.1676,-0.1676,0,0,0,0,0,0,0,-0.1703,-0.1704,-0.1713,-0.1702,-0.17,-0.1693,-0.1692,-0.1703,-0.1689,-0.1685,-0.1683,-0.1683,-0.1679,-0.168,-0.1681,-0.1699,-0.1675,-0.1676,-0.1677,-0.1677,-0.174,-0.1742,0,0,0,0,0,0,-0.1705,-0.1704,-0.1713,-0.1713,-0.1698,-0.1694,-0.1693,-0.1696,-0.1689,-0.1687,-0.1684,-0.1681,-0.168,-0.168,-0.1681,-0.1712,-0.1676,-0.1677,-0.1678,-0.1739,-0.1741,-0.1742,0,0,0,0,0,0,-0.1705,-0.1706,-0.1713,-0.1708,-0.1708,-0.1695,-0.1699,-0.1697,-0.1698,-0.1688,-0.1685,-0.1688,-0.1679,-0.1679,-0.1695,-0.1712,-0.1677,-0.1678,-0.1738,-0.174,-0.1741,-0.1776,0,0,0,0,0,0,-0.1705,-0.1706,-0.1716,-0.1708,-0.1709,-0.1728,-0.17,-0.1697,-0.17,-0.1696,-0.1691,-0.1689,-0.1678,-0.1694,-0.1696,-0.1712,-0.1679,-0.1736,-0.1739,-0.1741,-0.1773,-0.1779,-0.1783,0,0,0,0,0,-0.1705,-0.1726,-0.1717,-0.1718,-0.172,-0.1729,-0.1729,-0.1715,-0.1701,-0.1711,-0.1704,-0.1689,-0.1709,-0.1696,-0.1698,-0.1715,-0.1735,-0.1738,-0.1741,-0.1771,-0.1778,-0.1783,0,0,0,0,0,0,-0.1737,-0.1725,-0.1714,-0.1734,-0.1733,-0.1724,-0.1736,-0.1723,-0.1726,-0.1723,-0.1706,-0.1705,-0.1724,-0.1721,-0.1706,-0.1741,-0.172,-0.1723,-0.1742,-0.1748,-0.1753,-0.1754,-0.168,0,0,0,0,0,-0.1747,-0.1754,-0.1743,-0.1762,-0.1761,-0.1749,-0.1752,-0.1742,-0.174,-0.1739,-0.1733,-0.1733,-0.1739,-0.1743,-0.1748,-0.1772,-0.1771,-0.1785,-0.179,-0.1794,-0.1797,-0.1811,-0.1817,-0.1751,-0.1751,-0.1751,0,0,-0.1767,-0.1761,-0.1766,-0.1768,-0.1766,-0.1774,-0.1749,-0.1759,-0.1765,-0.1741,-0.1756,-0.1751,-0.1749,-0.177,-0.1778,-0.1768,-0.1815,-0.1797,-0.1801,-0.1802,-0.1814,-0.182,-0.1826,-0.1753,-0.1752,-0.1752,0,0,-0.1807,-0.1803,-0.1818,-0.1817,-0.1813,-0.1805,-0.1808,-0.1801,-0.1797,-0.1812,-0.1794,-0.1801,-0.1812,-0.1812,-0.1813,-0.1854,-0.184,-0.1856,-0.1882,-0.1895,-0.1901,-0.1905,-0.1921,-0.1926,-0.1859,-0.1859,-0.1859,0,-0.1832,-0.1844,-0.1828,-0.184,-0.1841,-0.1819,-0.1835,-0.1834,-0.1833,-0.1835,-0.1822,-0.1836,-0.1833,-0.1853,-0.1863,-0.1864,-0.1869,-0.1857,-0.1901,-0.1905,-0.191,-0.1924,-0.193,-0.1861,-0.1861,-0.186,-0.186,0,-0.1876,-0.1884,-0.1897,-0.1896,-0.1899,-0.1913,-0.1899,-0.1904,-0.1894,-0.1887,-0.1902,-0.1898,-0.1902,-0.1906,-0.1896,-0.1925,-0.1918,-0.1904,-0.1883,-0.1918,-0.1932,-0.1937,-0.1864,-0.1863,-0.1862,-0.1862,0,0,-0.1938,-0.1927,-0.1932,-0.1932,-0.1926,-0.1933,-0.1946,-0.1949,-0.1954,-0.1954,-0.1965,-0.1975,-0.1961,-0.1963,-0.1952,-0.1964,-0.1997,-0.1948,-0.1948,-0.1958,-0.2031,-0.2042,-0.2049,-0.1988,-0.1989,-0.199,-0.2031,0,-0.1977,-0.1998,-0.1984,-0.2008,-0.2016,-0.1995,-0.2006,-0.2004,-0.1998,-0.2004,-0.1998,-0.2005,-0.1986,-0.1987,-0.1997,-0.1991,-0.2012,-0.1988,-0.1999,-0.2,-0.2001,-0.2056,-0.2068,-0.2107,-0.2036,-0.2037,-0.2038,0,-0.2027,-0.2028,-0.2052,-0.2046,-0.2048,-0.2059,-0.2061,-0.2067,-0.2065,-0.206,-0.2061,-0.2048,-0.2061,-0.2039,-0.2057,-0.2041,-0.2045,-0.2043,-0.2044,-0.2045,-0.2022,-0.206,-0.2119,-0.2126,-0.2046,-0.2045,-0.2044,0,-0.2071,-0.2079,-0.2094,-0.2094,-0.2087,-0.2095,-0.2092,-0.2088,-0.2092,-0.2094,-0.2096,-0.21,-0.2102,-0.2106,-0.2094,-0.2079,-0.2114,-0.2091,-0.2111,-0.2111,-0.212,-0.212,-0.2182,-0.2121,-0.2121,-0.2121,-0.212,0,-0.2117,-0.2133,-0.2114,-0.2124,-0.2141,-0.2125,-0.2143,-0.2138,-0.2135,-0.2144,-0.2126,-0.2135,-0.2119,-0.2126,-0.2117,-0.2134,-0.2135,-0.2132,-0.2129,-0.2134,-0.2135,-0.2137,-0.2135,-0.2122,-0.2122,-0.2121,-0.2121,0,-0.217,-0.2157,-0.2173,-0.2164,-0.2163,-0.2176,-0.2169,-0.2178,-0.217,-0.2182,-0.2184,-0.2172,-0.218,-0.2168,-0.2175,-0.2169,-0.2193,-0.2185,-0.2193,-0.2192,-0.2212,-0.2211,-0.228,-0.2288,-0.222,-0.2221,-0.2221,0,-0.2201,-0.2212,-0.2205,-0.2209,-0.2207,-0.2214,-0.2218,-0.2202,-0.2206,-0.2205,-0.2214,-0.222,-0.2225,-0.2239,-0.2231,-0.2236,-0.223,-0.2254,-0.2231,-0.2235,-0.2232,-0.2232,-0.2233,-0.2259,-0.226,-0.226,-0.2261,0,-0.2257,-0.2251,-0.2255,-0.2258,-0.2262,-0.2264,-0.2264,-0.2269,-0.2253,-0.2258,-0.2266,-0.2269,-0.2276,-0.2283,-0.2286,-0.2284,-0.227,-0.2268,-0.2273,-0.2278,-0.2283,-0.2282,-0.2207,-0.2267,-0.2266,-0.2266,-0.2265,-0.2265,-0.2301,-0.231,-0.2307,-0.2313,-0.2311,-0.2312,-0.232,-0.2313,-0.2319,-0.2323,-0.2313,-0.2324,-0.2322,-0.2325,-0.2324,-0.2332,-0.2322,-0.2329,-0.2331,-0.2333,-0.2337,-0.228,-0.2333,-0.2332,-0.2332,-0.2332,-0.2332,0,-0.2358,-0.2354,-0.2359,-0.236,-0.2365,-0.2351,-0.235,-0.2356,-0.2365,-0.2363,-0.2368,-0.2377,-0.2384,-0.2376,-0.2382,-0.239,-0.2384,-0.2392,-0.2392,-0.2392,-0.2345,-0.2341,-0.2397,-0.2397,-0.2397,-0.2397,-0.2397,-0.2397,-0.2388,-0.2404,-0.2397,-0.2412,-0.2408,-0.2417,-0.2419,-0.2419,-0.2418,-0.2429,-0.2434,-0.2429,-0.2426,-0.2431,-0.2437,-0.2434,-0.2438,-0.2449,-0.2444,-0.2401,-0.2395,-0.2389,-0.2385,-0.2449,-0.2449,-0.249,-0.2491,-0.2491]},{"header":{"parameterUnit":"m.s-1","parameterCategory":1,"la1":30.2991,"la2":30.254,"lo1":-89.0895,"lo2":-89.0444,"dy":0.0017,"dx":0.0017,"nx":28,"ny":28,"refTime":"2024-08-26T03:00:00:Z","depth":0,"parameterNumber":3,"parameterNumberName":"V-component_of_WINDS"},"data":[0,0,0,0,0,0,0,0,0,0,0,0,0,0,0,0,0,0,0,0,0,0,0,0,0,0,0,0,0,0,0,0,0,0,0,0,0,0,0,0,0,0,0,0,0,0,0,0,0,0,0,0,0,0,0,0,0,0,-0.4436,-0.4436,0,-0.4467,-0.4468,-0.4468,-0.4484,-0.4484,-0.4484,-0.4484,-0.4518,-0.4519,-0.4519,0,0,0,0,0,0,0,0,0,0,0,0,0,-0.4392,-0.4393,-0.4436,-0.4436,-0.4437,-0.4467,-0.4468,-0.4468,-0.4484,-0.4484,-0.4484,-0.4484,-0.4517,-0.4518,-0.4519,0,0,0,0,0,0,0,0,0,0,0,0,0,-0.4416,-0.4393,-0.4436,-0.4448,-0.445,-0.4467,-0.4468,-0.4468,-0.4484,-0.4484,-0.4484,-0.4484,-0.4517,-0.4518,-0.452,-0.4528,0,0,-0.4524,-0.4524,0,0,0,0,0,0,0,0,-0.4415,-0.4418,-0.4446,-0.4447,-0.4449,-0.4471,-0.4465,-0.4488,-0.4484,-0.4471,-0.4484,-0.4484,-0.4502,-0.4505,-0.4511,-0.4529,-0.4531,-0.4524,-0.4525,-0.4525,-0.4526,0,0,0,0,0,0,0,-0.4413,-0.4416,-0.4448,-0.4446,-0.4448,-0.4453,-0.4456,-0.4469,-0.4486,-0.4472,-0.4473,-0.4477,-0.4503,-0.451,-0.4512,-0.4531,-0.4524,-0.4525,-0.4526,-0.4526,-0.4559,-0.4559,0,0,0,0,0,0,-0.4409,-0.4415,-0.4447,-0.4449,-0.4431,-0.4454,-0.4457,-0.4464,-0.4486,-0.4489,-0.4476,-0.4477,-0.4507,-0.451,-0.4513,-0.4524,-0.4525,-0.4527,-0.4527,-0.4559,-0.4559,-0.4559,0,0,0,0,0,0,-0.4408,-0.4412,-0.4446,-0.4432,-0.4437,-0.4454,-0.4462,-0.4465,-0.4471,-0.449,-0.4493,-0.448,-0.4507,-0.4511,-0.4524,-0.4526,-0.4527,-0.4528,-0.4559,-0.4559,-0.4559,-0.4547,0,0,0,0,0,0,-0.4407,-0.4411,-0.4414,-0.4432,-0.4438,-0.4456,-0.4462,-0.4466,-0.4473,-0.4474,-0.4493,-0.4497,-0.4508,-0.4522,-0.4525,-0.4528,-0.4529,-0.4559,-0.4559,-0.4559,-0.4547,-0.4547,-0.4546,0,0,0,0,0,-0.4405,-0.441,-0.4414,-0.4418,-0.4441,-0.4456,-0.4459,-0.4471,-0.4473,-0.4477,-0.4488,-0.4496,-0.4525,-0.4523,-0.4527,-0.453,-0.4559,-0.4559,-0.4559,-0.4547,-0.4547,-0.4546,0,0,0,0,0,0,-0.4392,-0.4412,-0.4417,-0.4428,-0.444,-0.4458,-0.4463,-0.447,-0.4482,-0.4483,-0.4498,-0.4502,-0.4514,-0.4523,-0.4521,-0.4539,-0.4543,-0.4544,-0.4533,-0.4532,-0.4531,-0.4529,-0.4531,0,0,0,0,0,-0.439,-0.4399,-0.4417,-0.4425,-0.443,-0.4445,-0.4452,-0.4461,-0.4474,-0.4479,-0.4492,-0.4505,-0.4518,-0.4525,-0.4538,-0.4549,-0.4553,-0.4553,-0.4552,-0.4551,-0.4552,-0.4559,-0.4559,-0.4559,-0.4559,-0.4559,0,0,-0.4386,-0.4399,-0.4404,-0.4422,-0.4432,-0.4443,-0.445,-0.446,-0.4468,-0.4481,-0.4494,-0.4504,-0.452,-0.4532,-0.4538,-0.454,-0.4553,-0.4552,-0.4551,-0.4552,-0.4559,-0.4559,-0.4559,-0.456,-0.456,-0.456,0,0,-0.4385,-0.4395,-0.4403,-0.4413,-0.4428,-0.4438,-0.444,-0.4458,-0.4465,-0.4478,-0.4488,-0.4498,-0.4519,-0.453,-0.4538,-0.4541,-0.4549,-0.4545,-0.4542,-0.4548,-0.4548,-0.4549,-0.455,-0.455,-0.4545,-0.4545,-0.4545,0,-0.4379,-0.4394,-0.4406,-0.4415,-0.4424,-0.4436,-0.4444,-0.4453,-0.4472,-0.4478,-0.448,-0.4506,-0.4518,-0.4533,-0.4534,-0.454,-0.4543,-0.4543,-0.4547,-0.4548,-0.4548,-0.455,-0.455,-0.4545,-0.4545,-0.4545,-0.4545,0,-0.4385,-0.4396,-0.44,-0.4417,-0.4426,-0.4435,-0.4449,-0.4457,-0.4464,-0.4475,-0.4488,-0.4502,-0.4518,-0.4522,-0.453,-0.4539,-0.454,-0.4544,-0.4548,-0.4547,-0.4549,-0.455,-0.4544,-0.4544,-0.4544,-0.4545,0,0,-0.4376,-0.44,-0.4402,-0.441,-0.4428,-0.4437,-0.4446,-0.4461,-0.4467,-0.448,-0.4489,-0.4506,-0.4511,-0.452,-0.453,-0.4536,-0.4538,-0.454,-0.454,-0.4539,-0.4549,-0.4545,-0.4546,-0.4543,-0.4543,-0.4543,-0.4548,0,-0.4378,-0.4395,-0.4407,-0.442,-0.443,-0.4442,-0.445,-0.4463,-0.4473,-0.4483,-0.4495,-0.4507,-0.4512,-0.4517,-0.4524,-0.4536,-0.454,-0.4536,-0.4552,-0.4553,-0.4548,-0.4547,-0.4543,-0.4546,-0.4548,-0.4549,-0.4549,0,-0.4381,-0.4393,-0.4407,-0.4425,-0.4429,-0.4437,-0.4451,-0.4461,-0.4476,-0.4483,-0.4493,-0.4503,-0.4514,-0.4517,-0.4534,-0.4531,-0.4538,-0.4546,-0.4546,-0.4548,-0.4551,-0.4549,-0.4548,-0.4548,-0.455,-0.455,-0.455,0,-0.4373,-0.4393,-0.4404,-0.4411,-0.4431,-0.4436,-0.4445,-0.446,-0.4468,-0.4481,-0.4487,-0.4501,-0.4509,-0.4521,-0.4534,-0.4535,-0.455,-0.4553,-0.4556,-0.4556,-0.4559,-0.4559,-0.4559,-0.4563,-0.4563,-0.4563,-0.4563,0,-0.4374,-0.4382,-0.4401,-0.4408,-0.4418,-0.4431,-0.4441,-0.4451,-0.4464,-0.4473,-0.4485,-0.4494,-0.4511,-0.4522,-0.4533,-0.4545,-0.4549,-0.4555,-0.4558,-0.4554,-0.4553,-0.4559,-0.456,-0.4564,-0.4564,-0.4564,-0.4564,0,-0.4367,-0.438,-0.4392,-0.4411,-0.4416,-0.4422,-0.4438,-0.4446,-0.4456,-0.4468,-0.4472,-0.4489,-0.4503,-0.4517,-0.4536,-0.4543,-0.4556,-0.4559,-0.455,-0.4552,-0.4554,-0.4554,-0.4558,-0.456,-0.4563,-0.4563,-0.4563,0,-0.4366,-0.4373,-0.4392,-0.4399,-0.4407,-0.4418,-0.4427,-0.4441,-0.4449,-0.4466,-0.4472,-0.4487,-0.4499,-0.4521,-0.4535,-0.455,-0.4554,-0.4555,-0.4556,-0.4553,-0.4555,-0.4554,-0.4555,-0.4554,-0.4554,-0.4554,-0.4554,0,-0.4364,-0.437,-0.4381,-0.4395,-0.4405,-0.4416,-0.4428,-0.4433,-0.445,-0.4459,-0.4473,-0.4483,-0.4502,-0.4516,-0.4533,-0.4543,-0.4551,-0.4553,-0.4555,-0.4551,-0.4546,-0.4549,-0.4549,-0.4553,-0.4553,-0.4553,-0.4553,-0.4553,-0.436,-0.4367,-0.4381,-0.4394,-0.4404,-0.4415,-0.4423,-0.4435,-0.4446,-0.4463,-0.4471,-0.4485,-0.45,-0.4523,-0.4533,-0.4545,-0.4547,-0.4549,-0.455,-0.455,-0.4549,-0.4544,-0.4548,-0.4548,-0.4548,-0.4548,-0.4548,0,-0.4359,-0.4369,-0.438,-0.4396,-0.4406,-0.4413,-0.4427,-0.4435,-0.4447,-0.446,-0.4472,-0.4488,-0.4503,-0.4518,-0.4534,-0.454,-0.4545,-0.4544,-0.4544,-0.4546,-0.4546,-0.4543,-0.454,-0.454,-0.454,-0.454,-0.454,-0.454,-0.4359,-0.4371,-0.4379,-0.4396,-0.4406,-0.4419,-0.4427,-0.4437,-0.4448,-0.4466,-0.4477,-0.4487,-0.4502,-0.4518,-0.4532,-0.4536,-0.4542,-0.454,-0.4545,-0.4545,-0.4546,-0.4546,-0.4544,-0.4541,-0.4541,-0.4544,-0.4544,-0.4544]}]]